Location: Beranovka
(49.9415°N, 12.8435°E)
Time: 23:08:34
(UTC+00:00)

Cosmos 407 Rocket - Pass Details

Date: 10 August 2020
Orbit: 744 x 786 km, 74.0° (Epoch: 23 September)

Event Time Altitude Azimuth Distance (km) Brightness Sun altitude
Rises 19:03:00 0° 179° (S) 3,258 6.4 -4.8°
Reaches altitude 10° 19:05:29 10° 172° (S) 2,331 5.6 -5.1°
Maximum altitude 19:10:25 41° 104° (ESE) 1,127 4.0 -5.8°
Drops below altitude 10° 19:15:20 10° 36° (NE) 2,326 6.0 -6.5°
Sets 19:17:49 0° 29° (NNE) 3,251 6.8 -6.8°
